Tracking 22283 objects as of 27-Jan-2021
HD Live streaming from Space Station
objects crossing your sky now

METEOR 2-8 DEB

Track METEOR 2-8 DEB now!
10-day predictions


NORAD ID: 36343
Int'l Code: 1982-025AD
Perigee: 854.5 km
Apogee: 883.7 km
Inclination: 82.5 °
Period: 102.2 minutes
Semi major axis: 7240 km
RCS: 0.0095 m2 (small)
Launch date: March 25, 1982
Source: Commonwealth of Independent States (former USSR) (CIS)
Launch site: PLESETSK MISSILE AND SPACE COMPLEX (PKMTR)

Note: This is SATELLITE DEBRIS
aabbcc
Your satellite tracking list
Your tracking list is empty




NASA's NSSDC Master Catalog

Two Line Element Set (TLE):
1 36343U 82025AD  21026.31316917  .00000745  00000-0  41927-3 0  9990
2 36343  82.5135  54.0158 0020178 271.6208  88.2655 14.09238488378663
Source of the keplerian elements: AFSPC